Location: Anan
(43.3550°N, 0.8171°E)
Time: 21:24:31
(UTC+00:00)

Cosmos 2026 Rocket - Pass Details

Date: 14 May 2026
Orbit: 939 x 999 km, 82.9° (Epoch: 10 June)

Event Time Altitude Azimuth Distance (km) Brightness Sun altitude
Rises 22:07:45 0° 353° (N) 3,729 8.2 -23.3°
Reaches altitude 10° 22:10:18 10° 356° (N) 2,777 7.3 -23.5°
Maximum altitude 22:16:42 74° 81° (E) 1,039 4.0 -24.0°
Enters shadow 22:18:17 52° 149° (SSE) 1,222 4.1 -24.1°
